User: anonymous
Location: Decatur(IL)
(39.8400°N, 88.9550°W)
Time: 12:22:52
(UTC-05:00)
Language:

Cosmos 2242 Rocket - Orbit

View from above orbital plane
View from above orbital plane
View from above satellite
View from above satellite

Ground track
Ground track

The orbit data is extracted from the following two-line orbital elements,

1 22627U 93024B   14113.09678300  .00000628  00000-0  84214-4 0  3005
2 22627 082.5217 088.7496 0025221 131.5823 275.3927 14.77583903132124
Epoch (UTC): 23 April 2014 02:19:22
Eccentricity: 0.0025221
inclination: 82.5217°
perigee height: 619 km
apogee height: 654 km
right ascension of ascending node: 88.7496°
argument of perigee: 131.5823°
revolutions per day: 14.77583903
mean anomaly at epoch: 275.3927°
orbit number at epoch: 13212

The dashed part of the orbit path shows where the satellite is in the earth's shadow,  

DLR